Temperature
22 23 24 23 23 23 22 22 22 22 23 23 22 22 21 21 21 20 19 19 18 18 17 17 17 16 16 16 16 16 16 16 16 15 15 15 15 15 14 14 14 14 14 14
22 23 23 23 23 23 23 23 22 22 22 23 23 22 21 21 20 20 19 19 18 18 17 17 16 16 16 16 16 16 16 16 15 15 15 15 15 14 14 14 14 14 13 13
21 23 23 22 23 23 23 23 23 22 22 23 22 22 21 21 20 20 19 18 18 18 17 17 16 16 16 16 16 16 16 15 15 15 15 15 14 14 14 14 14 13 13 13
21 22 20 22 24 24 23 23 23 23 23 23 22 22 21 20 20 19 19 18 18 17 17 16 16 16 15 15 15 15 15 15 15 15 15 14 14 14 14 13 13 13 13 13
21 20 21 22 23 23 22 22 23 22 22 22 21 21 20 20 19 18 18 18 17 17 17 16 16 15 15 15 15 15 15 15 15 15 14 14 14 13 13 13 13 13 13 13
20 20 20 21 22 22 22 21 22 22 22 21 21 19 19 19 18 17 17 17 17 16 16 16 15 15 15 15 15 15 15 14 14 14 14 14 13 13 13 13 13 12 12 12
20 20 20 21 22 22 20 20 21 21 21 20 20 19 19 18 17 17 17 16 16 16 15 15 15 15 14 14 14 14 14 14 14 13 13 13 13 13 13 12 12 12 12 12
20 19 19 21 21 20 20 21 20 20 20 19 19 18 18 17 17 16 16 15 15 15 15 14 14 14 14 14 14 14 13 13 13 13 13 13 13 12 12 12 12 12 12 12
20 20 20 20 20 20 20 20 20 19 19 18 18 17 17 16 16 15 15 15 15 14 14 14 14 14 13 13 13 13 13 13 12 12 12 12 12 12 12 12 12 11 11 11
20 20 20 20 19 19 19 19 19 18 18 18 17 17 16 16 15 15 15 14 14 14 14 14 13 13 13 13 13 13 12 12 12 12 12 12 12 12 12 11 11 11 11 11
19 19 19 19 19 18 18 18 18 18 17 17 17 16 16 15 15 15 14 14 14 14 14 13 13 13 13 13 12 12 12 12 12 11 11 11 11 11 11 11 11 11 11 11
18 18 18 18 18 18 18 17 17 17 17 16 16 16 15 15 15 14 14 14 14 13 13 13 13 13 12 12 12 12 12 11 11 11 11 11 11 11 11 10 10 10 10 10
17 17 17 17 17 17 17 16 16 16 16 16 15 15 15 15 14 14 14 13 13 13 13 13 12 12 12 12 12 11 11 11 11 11 10 10 10 10 10 10 10 10 10 10
17 16 16 16 16 16 16 16 16 15 15 15 15 14 14 14 14 14 13 13 13 13 12 12 12 12 12 12 11 11 11 11 11 10 10 10 10 10 10 10 10 9 9 9
16 16 16 15 15 15 15 15 15 15 14 14 14 14 13 13 13 13 13 12 12 12 12 12 11 11 11 11 11 11 10 10 10 10 10 9 9 9 9 9 9 9 9 9
15 15 15 15 14 14 14 14 14 14 14 13 13 13 13 13 12 12 12 12 12 12 11 11 11 11 11 11 10 10 10 10 10 9 9 9 9 9 9 9 9 9 9 9
14 14 14 14 13 13 13 13 13 13 13 13 13 12 12 12 12 12 11 11 11 11 11 11 11 11 10 10 10 10 10 9 9 9 9 8 8 8 8 8 8 8 8 8
13 13 13 13 13 13 13 13 12 12 12 12 12 12 12 11 11 11 11 11 10 10 10 10 10 10 10 10 10 9 9 9 9 8 8 8 8 8 8 8 8 8 8 8
13 13 12 12 12 12 12 12 12 12 12 12 11 11 11 11 11 10 10 10 10 10 10 10 10 10 9 9 9 9 9 9 8 8 8 8 8 7 7 7 7 7 7 7
12 12 12 12 12 12 11 11 11 11 11 11 11 11 11 10 10 10 10 9 9 9 9 9 9 9 9 9 9 8 8 8 8 8 8 7 7 7 7 7 7 7 7 7
11 11 11 11 11 11 11 11 11 11 10 10 10 10 10 10 10 9 9 9 9 9 9 9 9 8 8 8 8 8 8 8 7 7 7 7 7 7 7 7 7 7 6 6
10 10 10 10 10 10 10 10 10 10 10 10 10 10 9 9 9 9 9 9 9 9 9 8 8 8 8 8 8 8 7 7 7 7 7 7 7 6 6 6 6 6 6 6
10 10 10 10 10 9 9 9 9 9 9 9 9 9 9 9 9 9 8 8 8 8 8 8 8 8 8 8 7 7 7 7 7 7 7 7 6 6 6 6 6 6 6 6
9 9 9 9 9 9 8 8 8 9 9 9 9 8 8 8 8 8 8 8 8 8 7 7 7 7 7 7 7 7 7 7 7 6 6 6 6 6 6 6 6 6 6 6
8 8 8 8 8 8 8 8 8 8 8 8 8 8 8 8 8 7 7 7 7 7 7 7 7 7 7 7 6 6 6 6 6 6 6 6 6 6 6 5 5 5 5 5
8 7 7 7 7 7 7 7 7 7 7 7 7 7 7 7 7 7 7 7 7 6 6 6 6 6 6 6 6 6 6 6 6 6 6 5 5 5 5 5 5 5 5 5
7 7 7 7 6 6 6 6 6 6 6 6 6 6 6 6 6 6 6 6 6 6 6 6 6 5 5 5 5 5 5 5 5 5 5 5 5 5 5 5 5 5 4 4
Wind_Speed
8 9 7 6 6 6 7 7 6 6 4 1 3 3 3 3 4 4 4 4 4 4 3 3 3 2 2 3 3 4 4 3 3 3 3 3 3 2 1 1 1 1 2 1
9 9 8 8 8 8 9 9 7 7 5 0 2 3 3 3 4 4 3 3 4 4 4 3 3 3 2 3 3 3 4 4 3 3 3 3 3 3 2 1 1 1 1 2
8 8 9 8 7 8 7 6 7 7 3 1 1 2 3 3 4 3 3 3 3 3 3 3 3 3 2 1 2 3 3 4 4 3 3 3 3 3 3 3 2 1 2 2
7 8 8 2 1 1 3 4 4 4 2 1 1 2 2 3 3 3 3 3 2 2 3 2 2 2 2 1 1 3 3 4 4 4 3 3 2 3 3 3 3 2 2 2
6 7 6 4 1 1 4 3 2 3 1 1 1 2 2 3 4 3 3 2 1 1 2 2 1 2 2 2 1 2 2 3 4 4 4 3 3 3 3 3 3 3 3 3
7 7 6 0 3 2 2 3 2 2 2 2 1 1 1 4 4 3 3 2 2 1 1 1 1 1 1 1 1 1 1 2 3 4 4 4 4 3 2 2 3 3 3 3
10 9 4 2 2 1 2 1 4 4 3 1 1 1 3 4 4 3 3 2 2 2 1 0 0 1 2 1 1 1 1 1 2 3 4 4 4 3 3 3 3 3 3 3
8 9 4 2 1 1 2 3 3 3 3 3 3 3 4 3 3 2 2 2 1 1 1 1 1 0 0 1 0 0 0 1 2 2 3 3 3 3 3 3 3 3 3 3
3 2 2 1 2 3 4 4 3 3 3 2 1 1 2 2 2 2 1 1 0 1 1 1 0 0 1 1 0 1 1 2 3 3 3 3 4 4 3 3 3 3 3 3
6 3 2 2 3 4 4 4 4 2 2 1 1 1 1 1 1 1 2 1 1 2 2 2 1 1 2 1 1 2 2 2 2 3 3 2 2 3 3 3 4 3 4 4
9 7 5 3 3 4 4 5 4 3 2 2 2 2 2 3 3 3 2 2 2 3 3 3 2 2 2 1 2 2 3 3 2 2 2 2 2 2 3 4 5 4 4 4
8 7 7 5 4 4 5 5 5 5 4 4 3 4 4 3 3 3 3 3 3 3 3 3 3 3 2 2 2 3 2 2 2 2 2 2 2 1 1 2 4 4 4 4
9 9 9 8 5 5 6 6 6 6 5 4 4 4 4 3 3 3 3 4 4 3 3 3 3 3 3 2 2 3 2 2 2 2 2 3 3 3 2 1 1 2 3 4
7 7 7 6 6 6 7 7 6 5 4 4 3 3 3 3 3 3 3 3 3 3 3 2 2 2 2 2 2 3 2 2 2 2 2 3 3 3 3 3 2 1 2 2
9 8 8 7 7 6 6 6 6 5 4 3 3 3 3 3 3 3 3 3 3 3 3 2 2 2 1 2 2 2 2 1 2 2 2 2 3 3 3 3 3 2 1 1
8 8 7 7 7 6 6 6 6 5 5 4 4 3 3 3 3 3 3 2 2 3 3 2 3 2 2 2 2 2 1 2 2 2 2 2 2 2 2 2 3 3 3 2
8 8 7 7 7 7 7 7 6 6 5 4 4 3 3 3 3 2 2 2 3 2 2 2 2 1 2 2 2 1 1 2 3 2 2 2 2 2 3 3 3 3 3 3
8 7 7 7 7 7 6 6 6 5 5 5 4 4 4 4 4 3 3 3 3 3 2 2 2 2 2 2 2 2 2 2 2 3 2 2 2 3 3 3 3 3 2 3
6 6 6 6 6 6 5 5 5 5 5 4 4 4 4 4 3 3 3 4 4 4 3 2 2 3 2 3 3 2 2 2 2 2 2 3 3 3 3 3 3 3 3 3
6 6 6 6 6 5 5 5 5 4 4 3 3 3 3 4 3 4 4 5 4 3 3 2 3 3 3 3 2 2 3 3 3 3 2 3 3 3 3 3 3 3 3 3
7 6 6 5 5 5 5 5 4 4 3 3 4 4 4 4 4 4 4 4 3 2 2 3 3 2 2 2 2 2 3 3 3 4 3 3 4 4 4 4 3 4 4 4
6 5 5 5 4 5 5 4 3 3 3 3 3 3 3 3 3 3 4 3 2 2 2 2 2 2 3 3 3 3 4 4 4 4 4 4 4 4 4 4 4 4 4 4
5 5 5 5 5 4 4 3 3 3 2 2 2 3 3 3 2 3 3 2 1 2 2 2 2 3 4 3 3 4 4 4 4 4 4 4 4 4 4 4 4 4 4 3
5 5 5 5 4 3 3 3 3 3 2 2 2 2 2 2 2 2 1 1 1 2 2 2 4 4 4 3 3 4 4 4 4 3 3 3 4 4 4 4 4 4 4 4
5 5 4 4 3 3 3 3 3 3 2 1 2 2 2 1 2 1 1 1 2 2 2 3 4 5 4 3 3 4 4 4 4 3 3 3 4 4 4 4 4 4 4 4
5 4 3 3 3 2 2 2 2 2 2 2 2 2 2 1 1 1 1 1 2 2 2 2 3 3 3 2 3 3 3 3 4 4 4 4 4 4 3 4 4 4 3 3
4 3 2 2 2 2 2 2 2 2 2 2 2 2 2 1 1 1 1 1 1 1 1 2 2 2 2 2 2 3 3 3 3 3 3 3 3 3 4 4 3 3 3 3
Wind_Direction
273 281 283 279 272 265 263 270 276 290 294 217 134 135 137 141 137 131 133 136 135 137 138 140 145 153 145 147 147 146 145 146 158 161 148 147 143 141 147 156 164 150 143 139
276 272 270 268 262 259 261 264 266 276 285 168 124 129 145 146 139 133 141 146 145 151 151 162 168 176 176 176 167 157 156 157 147 159 152 155 163 165 170 180 182 156 154 153
281 282 275 260 252 249 255 260 265 270 276 150 142 157 173 167 160 161 149 139 148 157 155 169 172 171 174 193 166 149 155 161 159 162 164 173 180 173 176 177 169 178 193 154
275 273 262 263 94 249 266 273 281 286 257 194 155 128 132 132 141 145 134 134 151 161 150 157 163 154 161 186 193 169 169 171 166 168 169 178 185 184 190 181 180 196 199 159
269 269 264 253 199 277 259 267 298 296 322 41 81 109 120 107 93 80 94 97 103 117 129 142 157 157 163 181 208 189 176 182 170 167 171 178 190 208 214 198 196 200 197 180
258 266 267 82 67 24 310 260 0 10 51 52 96 222 115 98 91 81 80 83 80 68 73 131 160 145 166 184 201 227 209 193 176 171 171 186 205 215 220 216 208 198 200 197
252 257 262 50 46 328 252 25 38 40 38 31 352 51 97 94 91 86 85 85 85 79 51 29 35 168 189 192 216 236 228 229 190 184 192 195 205 205 207 213 202 199 206 209
246 250 247 76 115 288 345 32 37 29 24 39 52 71 94 103 114 108 89 84 92 98 75 40 15 357 264 242 239 112 179 222 233 219 213 206 190 201 207 197 198 208 210 213
265 266 55 83 16 355 352 345 0 7 19 31 28 70 125 138 143 139 143 141 183 165 160 182 183 226 272 266 214 161 203 231 224 239 233 204 187 194 200 191 196 208 208 212
273 258 280 315 343 342 336 326 329 335 331 314 290 271 172 177 178 202 199 195 209 207 206 214 202 220 252 255 214 197 228 240 219 225 230 225 204 191 191 196 199 209 209 210
276 278 272 264 296 305 309 307 309 303 292 278 270 262 228 219 212 219 224 213 219 217 217 220 208 208 239 251 259 236 233 217 214 218 213 220 215 198 196 202 194 200 207 201
271 288 291 288 290 296 297 297 292 285 280 275 263 259 253 243 230 224 226 226 225 220 220 228 220 210 215 225 246 250 245 211 200 207 210 197 192 221 233 207 193 200 205 201
278 292 292 293 301 303 295 288 279 271 269 270 268 264 269 267 246 233 229 231 231 226 227 232 227 225 219 217 239 250 239 226 213 210 209 200 201 204 213 272 234 218 209 201
288 290 288 290 295 293 289 286 282 276 271 269 273 269 262 263 255 241 235 236 236 227 227 231 229 239 227 211 238 252 228 225 224 216 215 210 211 216 206 199 205 235 236 222
277 277 274 280 278 281 285 285 280 274 271 266 261 259 253 253 252 250 248 247 237 226 225 219 221 237 230 227 234 245 231 219 220 218 215 213 218 218 213 209 199 185 173 223
282 282 279 276 276 275 272 271 269 266 264 260 257 256 256 255 253 251 249 244 240 235 228 225 234 233 226 230 240 233 228 228 231 225 216 217 216 214 217 215 202 192 194 191
282 281 283 280 279 274 266 262 260 261 261 257 251 247 248 246 240 240 243 246 246 244 237 229 231 224 222 224 218 216 217 229 234 229 214 220 218 218 219 217 209 204 203 188
280 279 278 277 278 279 275 268 265 263 258 249 243 241 240 235 230 234 238 246 251 245 241 237 217 214 226 228 218 217 209 217 224 223 217 213 225 226 219 218 219 218 214 203
295 297 293 288 285 281 278 275 270 268 263 252 238 238 245 244 241 239 237 241 242 240 234 217 215 223 230 231 222 205 208 222 240 240 230 222 230 237 228 218 219 220 214 198
302 298 294 292 288 290 291 287 281 275 269 257 243 240 245 247 244 243 244 246 241 229 205 207 217 220 218 211 210 214 220 227 234 236 227 217 222 232 232 224 217 221 222 212
300 301 301 300 299 298 291 282 274 266 264 254 243 242 244 249 246 237 235 245 241 201 185 205 217 219 213 217 229 231 227 223 228 229 223 220 223 229 229 224 222 223 225 221
303 307 305 301 298 295 291 286 278 271 261 253 247 248 252 254 253 250 244 235 214 189 194 205 211 222 237 249 240 231 229 231 232 229 220 216 222 229 228 226 225 226 226 222
306 307 307 306 302 300 306 306 294 281 266 261 255 252 256 257 249 242 255 251 207 202 206 208 226 238 250 246 241 235 228 228 229 232 230 223 221 224 227 227 226 224 224 222
314 314 314 315 315 309 306 313 312 302 294 286 278 268 264 265 266 260 247 218 198 196 218 218 225 234 242 245 244 238 232 228 226 226 232 230 226 225 226 228 226 223 223 223
310 311 312 314 308 306 311 319 322 323 321 314 320 321 306 282 261 260 251 224 203 203 222 229 228 235 240 243 239 240 234 230 235 232 227 232 230 226 222 219 219 220 222 223
305 304 302 294 296 307 315 317 312 312 317 322 322 322 318 309 282 266 249 229 223 224 221 225 229 238 250 252 252 252 247 247 251 247 239 235 232 228 221 215 215 216 220 224
305 306 311 311 316 320 311 299 294 294 298 299 301 311 308 297 282 263 252 246 245 237 234 238 239 250 268 272 273 267 262 251 248 246 240 236 233 231 225 220 216 216 219 224
Height
1505 1501 1499 1502 1503 1503 1506 1507 1511 1506 1504 1502 1502 1504 1507 1508 1510 1513 1515 1516 1518 1519 1520 1521 1522 1523 1524 1525 1526 1527 1528 1529 1530 1531 1532 1534 1535 1536 1537 1537 1538 1539 1539 1539
1505 1499 1498 1501 1500 1501 1502 1501 1503 1502 1502 1498 1500 1503 1506 1508 1510 1512 1514 1516 1517 1518 1519 1520 1521 1522 1523 1524 1525 1526 1526 1527 1528 1529 1530 1531 1532 1533 1534 1535 1536 1536 1537 1537
1509 1500 1499 1505 1497 1497 1498 1497 1499 1502 1500 1498 1500 1502 1505 1507 1509 1511 1513 1514 1516 1517 1518 1519 1520 1521 1521 1522 1523 1524 1524 1525 1526 1527 1528 1529 1530 1531 1531 1532 1533 1534 1534 1535
1507 1507 1516 1501 1489 1491 1494 1494 1495 1495 1495 1497 1499 1501 1504 1506 1507 1509 1511 1513 1514 1516 1517 1518 1519 1519 1520 1521 1521 1521 1522 1523 1523 1524 1525 1526 1527 1528 1529 1530 1530 1531 1531 1532
1509 1511 1505 1495 1491 1492 1495 1497 1494 1495 1495 1497 1498 1500 1503 1504 1506 1508 1510 1511 1513 1514 1515 1516 1517 1517 1518 1518 1519 1519 1519 1520 1521 1521 1522 1523 1524 1525 1526 1527 1527 1528 1528 1529
1508 1513 1511 1499 1492 1492 1495 1499 1495 1495 1496 1498 1499 1503 1505 1504 1506 1507 1508 1510 1511 1512 1513 1514 1515 1515 1515 1516 1516 1517 1517 1517 1518 1518 1519 1519 1520 1521 1522 1523 1524 1525 1525 1526
1507 1508 1501 1495 1493 1494 1505 1503 1496 1496 1497 1498 1500 1502 1503 1504 1505 1507 1507 1508 1510 1510 1511 1512 1513 1513 1513 1513 1513 1514 1514 1514 1514 1515 1515 1516 1517 1518 1519 1519 1520 1521 1522 1522
1502 1507 1505 1495 1494 1498 1499 1496 1497 1497 1498 1499 1500 1501 1502 1503 1504 1506 1506 1507 1508 1509 1509 1510 1510 1511 1510 1510 1511 1511 1510 1511 1511 1511 1512 1512 1513 1514 1515 1515 1516 1517 1518 1519
1497 1499 1495 1494 1496 1497 1496 1497 1497 1498 1499 1500 1500 1501 1501 1502 1503 1504 1505 1506 1506 1507 1507 1508 1508 1508 1508 1508 1508 1507 1507 1507 1507 1507 1508 1508 1509 1509 1510 1511 1512 1512 1513 1514
1493 1492 1493 1494 1494 1495 1496 1497 1497 1497 1498 1498 1499 1499 1500 1501 1502 1503 1503 1503 1504 1504 1504 1504 1505 1505 1505 1505 1505 1504 1504 1504 1504 1504 1504 1504 1505 1505 1506 1506 1507 1508 1509 1510
1491 1492 1492 1493 1494 1494 1495 1495 1495 1496 1496 1496 1497 1497 1498 1498 1499 1500 1500 1501 1501 1501 1501 1501 1501 1501 1501 1501 1501 1501 1501 1501 1500 1500 1500 1500 1501 1501 1502 1502 1503 1504 1504 1505
1493 1492 1492 1491 1492 1492 1492 1493 1493 1493 1493 1494 1494 1494 1495 1495 1496 1496 1497 1497 1498 1498 1498 1498 1498 1497 1498 1498 1498 1498 1498 1497 1497 1497 1497 1497 1497 1498 1498 1499 1500 1501 1501 1502
1490 1490 1490 1489 1489 1489 1489 1490 1490 1490 1490 1490 1491 1491 1491 1491 1492 1492 1493 1493 1494 1494 1494 1494 1494 1494 1494 1494 1494 1494 1494 1494 1493 1493 1493 1493 1494 1494 1495 1496 1497 1497 1498 1498
1487 1487 1487 1487 1487 1487 1487 1486 1486 1486 1486 1487 1487 1487 1487 1487 1488 1488 1488 1489 1489 1489 1489 1490 1490 1490 1490 1490 1490 1490 1490 1490 1490 1490 1490 1490 1490 1491 1491 1491 1492 1492 1493 1494
1484 1484 1484 1483 1483 1483 1483 1483 1482 1482 1482 1483 1483 1483 1483 1483 1483 1484 1484 1485 1485 1485 1485 1485 1485 1485 1485 1485 1486 1486 1486 1486 1486 1486 1486 1486 1487 1487 1487 1488 1488 1488 1489 1490
1480 1480 1480 1479 1479 1479 1479 1479 1478 1478 1478 1478 1478 1478 1479 1479 1479 1480 1480 1481 1481 1480 1480 1480 1480 1481 1481 1481 1482 1482 1482 1482 1482 1482 1482 1482 1483 1483 1484 1484 1484 1484 1485 1485
1477 1476 1475 1475 1475 1475 1474 1474 1474 1474 1474 1474 1474 1474 1474 1475 1475 1475 1476 1476 1476 1476 1476 1476 1476 1476 1477 1477 1477 1478 1478 1478 1478 1478 1478 1479 1479 1479 1480 1480 1480 1481 1481 1481
1473 1472 1472 1471 1471 1470 1470 1470 1469 1469 1469 1469 1470 1470 1470 1470 1470 1471 1471 1471 1472 1472 1472 1472 1472 1472 1472 1473 1473 1474 1474 1474 1475 1475 1475 1475 1476 1476 1476 1477 1477 1477 1477 1477
1468 1468 1467 1467 1467 1466 1466 1465 1465 1465 1465 1465 1465 1465 1465 1466 1466 1467 1467 1467 1467 1467 1467 1468 1468 1468 1468 1469 1469 1470 1470 1470 1471 1471 1471 1472 1472 1472 1473 1473 1473 1473 1473 1473
1465 1464 1463 1463 1463 1462 1462 1461 1460 1460 1460 1460 1461 1461 1461 1462 1462 1462 1462 1462 1462 1462 1463 1463 1464 1464 1464 1465 1465 1465 1466 1466 1466 1467 1467 1467 1468 1468 1468 1469 1469 1469 1469 1469
1462 1461 1460 1459 1458 1458 1457 1457 1456 1456 1456 1456 1456 1457 1457 1458 1458 1458 1458 1457 1458 1458 1459 1459 1459 1459 1460 1460 1461 1461 1461 1462 1462 1462 1463 1463 1463 1464 1464 1464 1464 1464 1464 1464
1459 1458 1456 1456 1455 1454 1453 1453 1452 1452 1452 1452 1452 1453 1453 1453 1453 1453 1453 1454 1454 1454 1454 1454 1455 1455 1456 1456 1456 1456 1457 1457 1457 1458 1458 1458 1458 1459 1459 1460 1460 1460 1460 1460
1456 1455 1453 1452 1451 1450 1450 1449 1449 1449 1448 1448 1449 1449 1449 1449 1449 1449 1449 1449 1450 1450 1450 1450 1450 1451 1451 1451 1451 1451 1452 1452 1452 1453 1453 1454 1454 1454 1455 1455 1455 1455 1455 1455
1453 1452 1451 1450 1449 1448 1447 1446 1446 1446 1446 1445 1445 1445 1445 1444 1444 1445 1445 1445 1445 1445 1445 1445 1446 1446 1446 1446 1446 1447 1447 1447 1448 1448 1449 1449 1449 1450 1450 1450 1450 1451 1451 1451
1450 1449 1448 1446 1446 1445 1444 1444 1443 1443 1442 1442 1442 1441 1441 1441 1440 1440 1441 1441 1441 1441 1441 1441 1441 1442 1442 1442 1442 1442 1442 1443 1443 1444 1444 1444 1444 1445 1445 1445 1446 1446 1446 1446
1447 1446 1445 1444 1444 1443 1442 1441 1440 1440 1439 1439 1438 1438 1438 1437 1437 1437 1437 1437 1437 1437 1437 1437 1437 1437 1437 1438 1438 1438 1438 1438 1439 1439 1439 1439 1439 1440 1440 1440 1441 1441 1441 1441
1444 1443 1442 1441 1441 1440 1439 1439 1438 1437 1437 1436 1435 1435 1434 1434 1434 1434 1433 1433 1433 1433 1433 1433 1433 1434 1433 1434 1434 1434 1434 1434 1434 1434 1434 1434 1434 1435 1435 1435 1435 1435 1435 1435